DPINO EDLN-EDMO

Flight info

Callsign DPINO
Flight time N/A
Altitude 39000
Route KUMIK4N KUMIK Y854 BOMBI T104 HAREM Z74 LAMPU/N0417F230 Z54 NOMBO Y161 MAH
Aircraft CL60/M-SBDE1E2E3FGHIJ1J4J5J7M3RWXYZ/LB1V1D1

Departure

Time 2026-04-27 19:39
Airport Mönchengladbach Airport (EDLN)

Arrival

Time N/A
Airport Oberpfaffenhofen Airport (EDMO)
Time Latitude Longitude Altitude Speed Heading
2026-04-27 19:07 51.22877 6.50372 126 ft 0 kts 219°
2026-04-27 19:29 51.22876 6.50372 126 ft 0 kts 219°
2026-04-27 19:33 51.22863 6.50355 126 ft 2 kts 214°
2026-04-27 19:33 51.22858 6.50350 126 ft 0 kts 220°
2026-04-27 19:33 51.22855 6.50348 126 ft 0 kts 184°
2026-04-27 19:34 51.22842 6.50362 126 ft 9 kts 123°
2026-04-27 19:34 51.22882 6.50439 126 ft 5 kts 40°
2026-04-27 19:34 51.22879 6.50494 126 ft 7 kts 129°
2026-04-27 19:35 51.22835 6.50583 126 ft 13 kts 129°
2026-04-27 19:35 51.22768 6.50716 126 ft 17 kts 128°
2026-04-27 19:35 51.22686 6.50883 126 ft 21 kts 130°
2026-04-27 19:35 51.22630 6.51020 126 ft 0 kts 90°
2026-04-27 19:36 51.22630 6.51024 126 ft 0 kts 89°
2026-04-27 19:37 51.22664 6.51103 126 ft 7 kts 13°
2026-04-27 19:37 51.22713 6.51081 126 ft 9 kts 330°
2026-04-27 19:37 51.22729 6.51058 126 ft 0 kts 308°
2026-04-27 19:39 51.22751 6.51013 126 ft 28 kts 309°
2026-04-27 19:39 51.23110 6.50300 126 ft 137 kts 309°
2026-04-27 19:39 51.23794 6.48917 721 ft 175 kts 310°
2026-04-27 19:39 51.24543 6.47376 1625 ft 190 kts 312°
2026-04-27 19:40 51.25393 6.45693 2219 ft 210 kts 313°
2026-04-27 19:40 51.26364 6.43777 2579 ft 242 kts 311°
2026-04-27 19:40 51.27431 6.41654 3848 ft 261 kts 310°
2026-04-27 19:40 51.28534 6.39447 5367 ft 270 kts 309°
2026-04-27 19:41 51.29635 6.37186 7001 ft 273 kts 303°
2026-04-27 19:41 51.30221 6.34459 8585 ft 275 kts 271°
2026-04-27 19:41 51.29782 6.31642 10024 ft 281 kts 239°
2026-04-27 19:41 51.28407 6.29570 11449 ft 289 kts 209°
2026-04-27 19:42 51.26547 6.28624 12829 ft 297 kts 187°
2026-04-27 19:42 51.24539 6.28965 14114 ft 307 kts 162°
2026-04-27 19:42 51.22624 6.30432 15309 ft 316 kts 154°
2026-04-27 19:42 51.20699 6.32050 16159 ft 335 kts 155°
2026-04-27 19:43 51.18610 6.33789 17153 ft 345 kts 155°
2026-04-27 19:43 51.16580 6.35484 18500 ft 341 kts 155°
2026-04-27 19:43 51.14644 6.37583 19531 ft 352 kts 141°
2026-04-27 19:43 51.13067 6.40574 20033 ft 365 kts 122°
2026-04-27 19:44 51.12208 6.44333 20386 ft 378 kts 98°
2026-04-27 19:44 51.12216 6.48457 21365 ft 382 kts 85°
2026-04-27 19:44 51.12392 6.52517 22473 ft 381 kts 85°
2026-04-27 19:44 51.12559 6.56663 23469 ft 384 kts 85°
2026-04-27 19:45 51.12730 6.60933 24020 ft 395 kts 85°
2026-04-27 19:45 51.12899 6.65197 24166 ft 395 kts 86°
2026-04-27 19:45 51.13066 6.69498 24174 ft 392 kts 86°
2026-04-27 19:45 51.13228 6.73705 24163 ft 390 kts 86°
2026-04-27 19:46 51.13390 6.77934 24174 ft 389 kts 86°
2026-04-27 19:46 51.13549 6.82142 24166 ft 389 kts 86°
2026-04-27 19:46 51.13708 6.86380 24165 ft 388 kts 86°
2026-04-27 19:46 51.13865 6.90618 24176 ft 388 kts 86°
2026-04-27 19:47 51.14012 6.94620 24165 ft 388 kts 86°
2026-04-27 19:47 51.14168 6.98900 24166 ft 388 kts 86°
2026-04-27 19:47 51.14320 7.03123 24160 ft 388 kts 86°
2026-04-27 19:47 51.14470 7.07345 24162 ft 388 kts 86°
2026-04-27 19:48 51.14621 7.11598 24154 ft 389 kts 86°
2026-04-27 19:48 51.14768 7.15824 24155 ft 390 kts 86°
2026-04-27 19:48 51.14915 7.20079 24155 ft 389 kts 86°
2026-04-27 19:48 51.15059 7.24279 24160 ft 389 kts 86°
2026-04-27 19:49 51.15202 7.28505 24168 ft 389 kts 86°
2026-04-27 19:49 51.15343 7.32721 24167 ft 389 kts 86°
2026-04-27 19:49 51.15482 7.36929 24164 ft 388 kts 86°
2026-04-27 19:49 51.15623 7.41218 24173 ft 389 kts 86°
2026-04-27 19:50 51.15760 7.45457 24174 ft 401 kts 86°
2026-04-27 19:50 51.15904 7.49912 24156 ft 412 kts 86°
2026-04-27 19:50 51.16045 7.54387 24171 ft 417 kts 86°
2026-04-27 19:50 51.16176 7.58932 24169 ft 416 kts 88°
2026-04-27 19:51 51.15888 7.63413 24177 ft 415 kts 104°
2026-04-27 19:51 51.14875 7.67599 24164 ft 411 kts 122°
2026-04-27 19:51 51.13204 7.71158 24171 ft 406 kts 139°
2026-04-27 19:51 51.11069 7.73999 24160 ft 402 kts 146°
2026-04-27 19:52 51.08893 7.76653 24164 ft 402 kts 146°
2026-04-27 19:52 51.06724 7.79309 24162 ft 402 kts 146°
2026-04-27 19:52 51.04539 7.81982 24163 ft 402 kts 146°
2026-04-27 19:52 51.02371 7.84631 24162 ft 402 kts 146°
2026-04-27 19:53 50.98132 7.89800 24168 ft 402 kts 146°
2026-04-27 19:53 50.95909 7.92503 24285 ft 415 kts 146°
2026-04-27 19:53 50.93623 7.95281 25122 ft 418 kts 147°
2026-04-27 19:54 50.91423 7.97966 26473 ft 408 kts 147°
2026-04-27 19:54 50.89256 8.00692 27633 ft 402 kts 147°
2026-04-27 19:54 50.87138 8.03420 28492 ft 403 kts 147°
2026-04-27 19:54 50.85003 8.06201 29157 ft 408 kts 146°
2026-04-27 19:55 50.82829 8.09050 29799 ft 413 kts 147°
2026-04-27 19:55 50.80606 8.11741 30359 ft 415 kts 151°
2026-04-27 19:55 50.78287 8.14342 30959 ft 419 kts 151°
2026-04-27 19:55 50.75921 8.16995 31490 ft 424 kts 151°
2026-04-27 19:56 50.73581 8.19617 31994 ft 428 kts 151°
2026-04-27 19:56 50.71164 8.22325 32508 ft 431 kts 151°
2026-04-27 19:56 50.68780 8.24992 32947 ft 435 kts 151°
2026-04-27 19:56 50.66332 8.27726 33154 ft 446 kts 151°
2026-04-27 19:57 50.63798 8.30547 33166 ft 460 kts 150°
2026-04-27 19:57 50.61184 8.33456 33157 ft 473 kts 150°
2026-04-27 19:57 50.55801 8.39445 33153 ft 489 kts 150°
2026-04-27 19:58 50.50362 8.45490 33156 ft 492 kts 150°
2026-04-27 19:58 50.44873 8.51575 33156 ft 491 kts 150°
2026-04-27 19:59 50.39407 8.57615 33147 ft 491 kts 150°
2026-04-27 19:59 50.33943 8.63635 33151 ft 491 kts 150°
2026-04-27 20:00 50.28447 8.69673 33146 ft 491 kts 150°
2026-04-27 20:00 50.22950 8.75694 33148 ft 491 kts 150°
2026-04-27 20:01 50.17481 8.81665 33139 ft 490 kts 150°
2026-04-27 20:01 50.11976 8.87659 33131 ft 490 kts 150°
2026-04-27 20:02 50.06495 8.93611 33132 ft 491 kts 150°
2026-04-27 20:02 50.00988 8.99572 33132 ft 491 kts 150°
2026-04-27 20:03 49.95507 9.05491 32777 ft 483 kts 150°
2026-04-27 20:03 49.92853 9.08355 32212 ft 475 kts 150°
2026-04-27 20:03 49.90180 9.11233 31631 ft 468 kts 150°
2026-04-27 20:04 49.87594 9.14013 31060 ft 462 kts 150°
2026-04-27 20:04 49.85023 9.16773 30484 ft 456 kts 150°
2026-04-27 20:04 49.82470 9.19510 29889 ft 451 kts 150°
2026-04-27 20:04 49.79965 9.22190 29318 ft 445 kts 150°
2026-04-27 20:05 49.77457 9.24871 28724 ft 440 kts 149°
2026-04-27 20:05 49.75008 9.27483 28167 ft 435 kts 149°
2026-04-27 20:05 49.72582 9.30070 27598 ft 430 kts 149°
2026-04-27 20:05 49.70177 9.32630 27043 ft 425 kts 149°
2026-04-27 20:06 49.67807 9.35149 26493 ft 420 kts 149°
2026-04-27 20:06 49.65469 9.37632 25951 ft 416 kts 149°
2026-04-27 20:06 49.63139 9.40104 25410 ft 411 kts 149°
2026-04-27 20:06 49.60785 9.42431 24881 ft 404 kts 153°
2026-04-27 20:07 49.58444 9.44578 24530 ft 395 kts 153°
2026-04-27 20:07 49.56162 9.46672 24382 ft 381 kts 153°
2026-04-27 20:07 49.53944 9.48704 24150 ft 373 kts 153°
2026-04-27 20:07 49.51764 9.50696 23872 ft 372 kts 153°
2026-04-27 20:08 49.49593 9.52676 23602 ft 372 kts 153°
2026-04-27 20:08 49.47384 9.54688 23327 ft 371 kts 153°
2026-04-27 20:08 49.45211 9.56667 23057 ft 369 kts 153°
2026-04-27 20:08 49.43032 9.58649 22787 ft 368 kts 153°
2026-04-27 20:09 49.40875 9.60609 22521 ft 367 kts 153°
2026-04-27 20:09 49.38705 9.62579 22251 ft 366 kts 153°
2026-04-27 20:09 49.36661 9.64433 22001 ft 364 kts 153°
2026-04-27 20:09 49.34538 9.66383 21733 ft 363 kts 150°
2026-04-27 20:10 49.32629 9.68852 21467 ft 366 kts 138°
2026-04-27 20:10 49.30858 9.71586 21193 ft 364 kts 137°
2026-04-27 20:10 49.29093 9.74294 20924 ft 363 kts 137°
2026-04-27 20:10 49.27340 9.76980 20665 ft 362 kts 138°
2026-04-27 20:11 49.25603 9.79635 20399 ft 360 kts 137°
2026-04-27 20:11 49.23870 9.82283 20140 ft 358 kts 137°
2026-04-27 20:11 49.22142 9.84918 19877 ft 357 kts 137°
2026-04-27 20:11 49.20419 9.87542 19617 ft 355 kts 137°
2026-04-27 20:12 49.18692 9.90168 19363 ft 353 kts 137°
2026-04-27 20:12 49.16976 9.92773 19097 ft 352 kts 137°
2026-04-27 20:12 49.15281 9.95346 18846 ft 351 kts 137°
2026-04-27 20:12 49.13580 9.97923 18585 ft 350 kts 137°
2026-04-27 20:13 49.11892 10.00477 18328 ft 349 kts 137°
2026-04-27 20:13 49.10195 10.03042 18077 ft 347 kts 137°
2026-04-27 20:13 49.08501 10.05600 17831 ft 346 kts 137°
2026-04-27 20:13 49.06820 10.08129 17567 ft 344 kts 137°
2026-04-27 20:14 49.05122 10.10569 17320 ft 342 kts 138°
2026-04-27 20:14 49.03411 10.12995 17068 ft 341 kts 139°
2026-04-27 20:14 49.01704 10.15414 16816 ft 338 kts 138°
2026-04-27 20:14 49.00009 10.17815 16567 ft 337 kts 139°
2026-04-27 20:15 48.98322 10.20199 16325 ft 335 kts 138°
2026-04-27 20:15 48.96645 10.22568 16077 ft 334 kts 138°
2026-04-27 20:15 48.94994 10.24898 15836 ft 332 kts 138°
2026-04-27 20:15 48.93319 10.27266 15595 ft 331 kts 138°
2026-04-27 20:16 48.91666 10.29600 15346 ft 329 kts 138°
2026-04-27 20:16 48.90024 10.31917 15108 ft 327 kts 138°
2026-04-27 20:16 48.88376 10.34240 14868 ft 326 kts 138°
2026-04-27 20:16 48.86754 10.36524 14633 ft 325 kts 138°
2026-04-27 20:17 48.85106 10.38843 14396 ft 324 kts 137°
2026-04-27 20:17 48.83491 10.41117 14163 ft 322 kts 137°
2026-04-27 20:17 48.81936 10.43496 13918 ft 321 kts 134°
2026-04-27 20:17 48.80444 10.45894 13692 ft 319 kts 134°
2026-04-27 20:18 48.78951 10.48286 13455 ft 318 kts 134°
2026-04-27 20:18 48.77440 10.50706 13219 ft 316 kts 134°
2026-04-27 20:18 48.75967 10.53063 12993 ft 315 kts 134°
2026-04-27 20:18 48.74472 10.55454 12760 ft 314 kts 134°
2026-04-27 20:19 48.73003 10.57799 12535 ft 313 kts 134°
2026-04-27 20:19 48.71529 10.60150 12301 ft 312 kts 133°
2026-04-27 20:19 48.70070 10.62475 12079 ft 310 kts 133°
2026-04-27 20:19 48.68598 10.64819 11850 ft 309 kts 133°
2026-04-27 20:20 48.67159 10.67108 11625 ft 308 kts 134°
2026-04-27 20:20 48.65696 10.69433 11400 ft 306 kts 134°
2026-04-27 20:20 48.64263 10.71707 11176 ft 305 kts 134°
2026-04-27 20:20 48.62817 10.74002 10958 ft 303 kts 134°
2026-04-27 20:21 48.61376 10.76286 10728 ft 302 kts 134°
2026-04-27 20:21 48.59967 10.78518 10519 ft 301 kts 134°
2026-04-27 20:21 48.58546 10.80771 10291 ft 300 kts 134°
2026-04-27 20:21 48.57136 10.83028 10147 ft 296 kts 133°
2026-04-27 20:22 48.55737 10.85268 10128 ft 297 kts 134°
2026-04-27 20:22 48.54355 10.87478 10127 ft 297 kts 134°
2026-04-27 20:22 48.52945 10.89733 10136 ft 298 kts 134°
2026-04-27 20:22 48.51546 10.91967 10140 ft 298 kts 134°
2026-04-27 20:23 48.50143 10.94205 10129 ft 298 kts 134°
2026-04-27 20:23 48.48734 10.96439 10135 ft 298 kts 134°
2026-04-27 20:23 48.47317 10.98654 10129 ft 298 kts 134°
2026-04-27 20:23 48.45904 11.00859 10140 ft 299 kts 134°
2026-04-27 20:24 48.44484 11.03074 10124 ft 299 kts 134°
2026-04-27 20:24 48.43049 11.05309 10133 ft 299 kts 134°
2026-04-27 20:24 48.41634 11.07512 10133 ft 298 kts 134°
2026-04-27 20:24 48.40214 11.09720 10136 ft 298 kts 134°
2026-04-27 20:25 48.38892 11.11776 10128 ft 298 kts 134°
2026-04-27 20:25 48.37372 11.14137 10130 ft 298 kts 134°
2026-04-27 20:25 48.35932 11.16371 10132 ft 298 kts 134°
2026-04-27 20:25 48.34521 11.18558 10129 ft 298 kts 134°